�������l�o���
Date,Time,MP-1(��Sv/h),MP-2(��Sv/h),MP-3(��Sv/h),MP-4(��Sv/h),MP-5(��Sv/h),MP-6(��Sv/h),MP-7(��Sv/h),����,����(m/s),���J
2013/08/09,00:00,0.9,0.6,0.9,0.8,0.8,0.4,0.3,�쐼,4.3,��
2013/08/09,00:10,0.9,0.6,0.9,0.8,0.8,0.4,0.3,���쐼,4.0,��
2013/08/09,00:20,0.9,0.6,0.9,0.8,0.8,0.4,0.3,���쐼,3.8,��
2013/08/09,00:30,0.9,0.6,0.9,0.8,0.8,0.4,0.3,���쐼,2.8,��
2013/08/09,00:40,0.9,0.6,0.9,0.8,0.8,0.4,0.3,-,CALM,��
2013/08/09,00:50,0.9,0.6,0.9,0.8,0.8,0.4,0.3,��,1.1,��
2013/08/09,01:00,0.9,0.6,0.9,0.8,0.8,0.4,0.3,���쐼,2.2,��
2013/08/09,01:10,0.9,0.6,0.9,0.8,0.8,0.4,0.3,��,1.9,��
2013/08/09,01:20,0.9,0.6,0.9,0.8,0.8,0.4,0.3,���쐼,2.9,��
2013/08/09,01:30,0.9,0.6,0.9,0.8,0.8,0.4,0.3,�쐼,2.2,��
2013/08/09,01:40,0.9,0.6,0.9,0.8,0.8,0.4,0.3,�쐼,3.3,��
2013/08/09,01:50,0.9,0.6,0.9,0.8,0.8,0.4,0.3,�쐼,2.4,��
2013/08/09,02:00,0.9,0.6,0.9,0.8,0.8,0.4,0.3,�쐼,3.8,��
2013/08/09,02:10,0.9,0.6,0.9,0.8,0.8,0.4,0.3,�쐼,4.5,��
2013/08/09,02:20,0.9,0.6,0.9,0.8,0.8,0.4,0.3,�쐼,4.0,��
2013/08/09,02:30,0.9,0.6,0.9,0.8,0.8,0.4,0.3,���쐼,2.5,��
2013/08/09,02:40,0.9,0.6,0.9,0.8,0.8,0.4,0.3,�쐼,1.8,��
2013/08/09,02:50,0.9,0.6,0.9,0.8,0.8,0.4,0.3,-,CALM,��
2013/08/09,03:00,0.9,0.6,0.9,0.8,0.8,0.4,0.3,-,CALM,��
2013/08/09,03:10,0.9,0.6,0.9,0.8,0.8,0.4,0.3,-,CALM,��
2013/08/09,03:20,0.9,0.6,0.9,0.8,0.8,0.4,0.3,��,0.7,��
2013/08/09,03:30,0.9,0.6,0.9,0.8,0.8,0.4,0.3,�쐼,0.5,��
2013/08/09,03:40,0.9,0.6,0.9,0.8,0.8,0.4,0.3,-,CALM,��
2013/08/09,03:50,0.9,0.6,0.9,0.8,0.8,0.4,0.3,��,0.9,��
2013/08/09,04:00,0.9,0.6,0.9,0.8,0.8,0.4,0.3,-,CALM,��
2013/08/09,04:10,0.9,0.6,0.9,0.8,0.8,0.4,0.3,��,1.0,��
2013/08/09,04:20,0.9,0.6,0.9,0.8,0.8,0.4,0.3,���k��,0.7,��
2013/08/09,04:30,0.9,0.6,0.9,0.8,0.8,0.4,0.3,�k�k��,1.0,��
2013/08/09,04:40,0.9,0.6,0.9,0.8,0.8,0.4,0.3,�k�k��,1.3,��
2013/08/09,04:50,0.9,0.6,0.9,0.8,0.8,0.4,0.3,�k�k��,1.9,��
2013/08/09,05:00,0.9,0.6,0.9,0.8,0.8,0.4,0.3,�k�k��,2.5,��
2013/08/09,05:10,0.9,0.6,0.9,0.8,0.8,0.4,0.3,�k,3.1,��
2013/08/09,05:20,0.9,0.6,0.9,0.8,0.8,0.4,0.3,�k�k��,3.3,��
2013/08/09,05:30,0.9,0.6,0.9,0.8,0.8,0.4,0.3,�k�k��,3.4,��
2013/08/09,05:40,0.9,0.6,0.9,0.8,0.8,0.4,0.3,�k�k��,3.0,��
2013/08/09,05:50,0.9,0.6,0.9,0.8,0.8,0.4,0.3,�k�k��,1.7,��
2013/08/09,06:00,0.9,0.6,0.9,0.8,0.8,0.4,0.3,�k��,1.3,��
2013/08/09,06:10,0.9,0.6,0.9,0.8,0.8,0.4,0.3,�k��,1.6,��
2013/08/09,06:20,0.9,0.6,0.9,0.8,0.8,0.4,0.3,�k�k��,2.2,��
2013/08/09,06:30,0.9,0.6,0.9,0.8,0.8,0.4,0.3,�k�k��,1.2,��
2013/08/09,06:40,0.9,0.6,0.9,0.8,0.8,0.4,0.3,�k�k��,1.6,��
2013/08/09,06:50,0.9,0.6,0.9,0.8,0.8,0.4,0.3,-,CALM,��
2013/08/09,07:00,0.9,0.6,0.9,0.8,0.8,0.4,0.3,��,0.5,��
2013/08/09,07:10,0.9,0.6,0.9,0.8,0.8,0.4,0.3,�k,0.6,��
2013/08/09,07:20,0.9,0.6,0.9,0.8,0.8,0.4,0.3,-,CALM,��
2013/08/09,07:30,0.9,0.6,0.9,0.8,0.8,0.4,0.3,-,CALM,��
2013/08/09,07:40,0.9,0.6,0.9,0.8,0.8,0.4,0.3,��쓌,1.3,��
2013/08/09,07:50,0.9,0.6,0.9,0.8,0.8,0.4,0.3,��,1.1,��
2013/08/09,08:00,0.9,0.6,0.9,0.8,0.8,0.4,0.3,�쐼,2.8,��
2013/08/09,08:10,0.9,0.6,0.9,0.8,0.8,0.4,0.3,�쐼,1.9,��
2013/08/09,08:20,0.9,0.6,0.9,0.8,0.8,0.4,0.3,�쐼,2.0,��
2013/08/09,08:30,0.9,0.6,0.9,0.8,0.8,0.4,0.3,��쐼,1.9,��
2013/08/09,08:40,0.9,0.6,0.9,0.8,0.8,0.4,0.3,��쐼,2.5,��
2013/08/09,08:50,0.9,0.6,0.9,0.8,0.8,0.4,0.3,��쐼,2.7,��
2013/08/09,09:00,0.9,0.6,0.9,0.8,0.8,0.4,0.3,�쐼,2.9,��
2013/08/09,09:10,0.9,0.6,0.9,0.8,0.8,0.4,0.3,�쐼,3.6,��
2013/08/09,09:20,0.9,0.6,0.9,0.8,0.8,0.4,0.3,�쐼,3.0,��
2013/08/09,09:30,0.9,0.6,0.9,0.8,0.8,0.4,0.3,�쐼,3.3,��
2013/08/09,09:40,0.9,0.6,0.9,0.8,0.8,0.4,0.3,��쐼,3.3,��
2013/08/09,09:50,0.9,0.6,0.9,0.8,0.8,0.4,0.3,��쐼,2.8,��
2013/08/09,10:00,0.9,0.6,0.9,0.8,0.8,0.4,0.3,��쐼,4.1,��
2013/08/09,10:10,0.9,0.6,0.9,0.8,0.8,0.4,0.3,��,3.3,��
2013/08/09,10:20,0.9,0.6,0.9,0.8,0.8,0.4,0.3,��,3.5,��
2013/08/09,10:30,0.9,0.6,0.9,0.8,0.8,0.4,0.3,��,4.1,��
2013/08/09,10:40,0.9,0.6,0.9,0.8,0.8,0.4,0.3,��,4.5,��
2013/08/09,10:50,0.9,0.6,0.9,0.8,0.8,0.4,0.3,��,5.1,��
2013/08/09,11:00,0.9,0.6,0.9,0.8,0.8,0.4,0.3,��,3.9,��
2013/08/09,11:10,0.9,0.6,0.9,0.8,0.8,0.4,0.3,��쐼,3.1,��
2013/08/09,11:20,0.9,0.6,0.9,0.8,0.8,0.4,0.3,��,2.4,��
2013/08/09,11:30,0.9,0.6,0.9,0.8,0.8,0.4,0.3,��,2.3,��
2013/08/09,11:40,0.9,0.6,0.9,0.8,0.8,0.4,0.3,��,3.4,��
2013/08/09,11:50,0.9,0.6,0.9,0.8,0.8,0.4,0.3,��,4.0,��
2013/08/09,12:00,0.9,0.6,0.9,0.8,0.8,0.4,0.3,��,4.0,��
2013/08/09,12:10,0.9,0.6,0.9,0.8,0.8,0.4,0.3,��쓌,4.0,��
2013/08/09,12:20,0.9,0.6,0.9,0.8,0.8,0.4,0.3,��쓌,3.8,��
2013/08/09,12:30,0.9,0.6,0.9,0.8,0.8,0.4,0.3,��,4.9,��
2013/08/09,12:40,0.9,0.6,0.9,0.8,0.8,0.4,0.3,��,5.3,��
2013/08/09,12:50,0.9,0.6,0.9,0.8,0.8,0.4,0.3,��,5.0,��
2013/08/09,13:00,0.9,0.6,0.9,0.8,0.8,0.4,0.3,��,6.1,��
2013/08/09,13:10,0.9,0.6,0.9,0.8,0.8,0.4,0.3,��,5.7,��
2013/08/09,13:20,0.9,0.6,0.9,0.8,0.8,0.4,0.3,��,5.3,��
2013/08/09,13:30,0.9,0.6,0.9,0.8,0.8,0.4,0.3,��,6.2,��
2013/08/09,13:40,0.9,0.6,0.9,0.8,0.8,0.4,0.3,��,5.9,��
2013/08/09,13:50,0.9,0.6,0.9,0.8,0.8,0.4,0.3,��,6.4,��
2013/08/09,14:00,0.9,0.6,0.9,0.8,0.8,0.4,0.3,��,6.1,��
2013/08/09,14:10,0.9,0.6,0.9,0.8,0.8,0.4,0.3,��,5.8,��
2013/08/09,14:20,0.9,0.6,0.9,0.8,0.8,0.4,0.3,��,5.3,��
2013/08/09,14:30,0.9,0.6,0.9,0.8,0.8,0.4,0.3,��,6.1,��
2013/08/09,14:40,0.9,0.6,0.9,0.8,0.8,0.4,0.3,��,5.3,��
2013/08/09,14:50,0.9,0.6,0.9,0.8,0.8,0.4,0.3,��,5.0,��
2013/08/09,15:00,0.9,0.6,0.9,0.8,0.8,0.4,0.3,��,6.0,��
2013/08/09,15:10,0.9,0.6,0.9,0.8,0.8,0.4,0.3,��,5.8,��
2013/08/09,15:20,0.9,0.6,0.9,0.8,0.8,0.4,0.3,��,4.9,��
2013/08/09,15:30,0.9,0.6,0.9,0.8,0.8,0.4,0.3,��,4.7,��
2013/08/09,15:40,0.9,0.6,0.9,0.8,0.8,0.4,0.3,��,5.4,��
2013/08/09,15:50,0.9,0.6,0.9,0.8,0.8,0.4,0.3,��,5.3,��
2013/08/09,16:00,0.9,0.6,0.9,0.8,0.8,0.4,0.3,��,4.5,��
2013/08/09,16:10,0.9,0.6,0.9,0.8,0.8,0.4,0.3,��,5.1,��
2013/08/09,16:20,0.9,0.6,0.9,0.8,0.8,0.4,0.3,��,4.8,��
2013/08/09,16:30,0.9,0.6,0.9,0.8,0.8,0.4,0.3,��쐼,5.2,��
2013/08/09,16:40,0.9,0.6,0.9,0.8,0.8,0.4,0.3,��,5.3,��
2013/08/09,16:50,0.9,0.6,0.9,0.8,0.8,0.4,0.3,��,5.6,��
2013/08/09,17:00,0.9,0.6,0.9,0.8,0.8,0.4,0.3,��,5.9,��
2013/08/09,17:10,0.9,0.6,0.9,0.8,0.8,0.4,0.3,��,4.8,��
2013/08/09,17:20,0.9,0.6,0.9,0.8,0.8,0.4,0.3,��,4.6,��
2013/08/09,17:30,0.9,0.6,0.9,0.8,0.8,0.4,0.3,��쐼,4.5,��
2013/08/09,17:40,0.9,0.6,0.9,0.8,0.8,0.4,0.3,��쐼,4.4,��
2013/08/09,17:50,0.9,0.6,0.9,0.8,0.8,0.4,0.3,��쐼,3.0,��
2013/08/09,18:00,0.9,0.6,0.9,0.8,0.8,0.4,0.3,��쐼,2.9,��
2013/08/09,18:10,0.9,0.6,0.9,0.8,0.8,0.4,0.3,��쐼,3.4,��
2013/08/09,18:20,0.9,0.6,0.9,0.8,0.8,0.4,0.3,�쐼,3.2,��
2013/08/09,18:30,0.9,0.6,0.9,0.8,0.8,0.4,0.3,�쐼,3.8,��
2013/08/09,18:40,0.9,0.6,0.9,0.8,0.8,0.4,0.3,�쐼,3.9,��
2013/08/09,18:50,0.9,0.6,0.9,0.8,0.8,0.4,0.3,��쐼,3.2,��
2013/08/09,19:00,0.9,0.6,0.9,0.8,0.8,0.4,0.3,�쐼,3.0,��
2013/08/09,19:10,0.9,0.6,0.9,0.8,0.8,0.4,0.3,�쐼,3.6,��
2013/08/09,19:20,0.9,0.6,0.9,0.8,0.8,0.4,0.3,���쐼,3.8,��
2013/08/09,19:30,0.9,0.6,0.9,0.8,0.8,0.4,0.3,��,3.4,��
2013/08/09,19:40,0.9,0.6,0.9,0.8,0.8,0.4,0.3,���쐼,3.9,��
2013/08/09,19:50,0.9,0.6,0.9,0.8,0.8,0.4,0.3,���쐼,2.8,��
2013/08/09,20:00,0.9,0.6,0.9,0.8,0.8,0.4,0.3,���쐼,3.9,��
2013/08/09,20:10,0.9,0.6,0.9,0.8,0.8,0.4,0.3,��,3.0,��
2013/08/09,20:20,0.9,0.6,0.9,0.8,0.8,0.4,0.3,���쐼,2.7,��
2013/08/09,20:30,0.9,0.6,0.9,0.8,0.8,0.4,0.3,��,3.2,��
2013/08/09,20:40,0.9,0.6,0.9,0.8,0.8,0.4,0.3,��,4.2,��
2013/08/09,20:50,0.9,0.6,0.9,0.8,0.8,0.4,0.3,��,3.6,��
2013/08/09,21:00,0.9,0.6,0.9,0.8,0.8,0.4,0.3,��,3.4,��
2013/08/09,21:10,0.9,0.6,0.9,0.8,0.8,0.4,0.3,��,3.4,��
2013/08/09,21:20,0.9,0.6,0.9,0.8,0.8,0.4,0.3,��,4.2,��
2013/08/09,21:30,0.9,0.6,0.9,0.8,0.8,0.4,0.3,���쐼,4.7,��
2013/08/09,21:40,0.9,0.6,0.9,0.8,0.8,0.4,0.3,��,4.2,��
2013/08/09,21:50,0.9,0.6,0.9,0.8,0.8,0.4,0.3,��,5.0,��
2013/08/09,22:00,0.9,0.6,0.9,0.8,0.8,0.4,0.3,��,4.9,��
2013/08/09,22:10,0.9,0.6,0.9,0.8,0.8,0.4,0.3,��,3.9,��
2013/08/09,22:20,0.9,0.6,0.9,0.8,0.8,0.4,0.3,��,3.4,��
2013/08/09,22:30,0.9,0.6,0.9,0.8,0.8,0.4,0.3,���k��,4.2,��
2013/08/09,22:40,0.9,0.6,0.9,0.8,0.8,0.4,0.3,��,4.3,��
2013/08/09,22:50,0.9,0.6,0.9,0.8,0.8,0.4,0.3,��,5.8,��
2013/08/09,23:00,0.9,0.6,0.9,0.8,0.8,0.4,0.3,���k��,6.8,��
2013/08/09,23:10,0.9,0.6,0.9,0.8,0.8,0.4,0.3,���k��,6.3,��
2013/08/09,23:20,0.9,0.6,0.9,0.8,0.8,0.4,0.3,���k��,5.3,��
2013/08/09,23:30,0.9,0.6,0.9,0.8,0.8,0.4,0.3,���k��,5.0,��
2013/08/09,23:40,0.9,0.6,0.9,0.8,0.8,0.4,0.3,���k��,4.4,��
2013/08/09,23:50,0.9,0.6,0.9,0.8,0.8,0.4,0.3,��,2.6,��
